Theta_e
308 308 308 313 316 319 320 320 319 316 314 313 311 310 311 311 311 317 331 328 334 341 347 351 351 356 351 356 351 354 362 348 344 346 346 343 343 342 342 344 345 346 347 348 346
308 307 307 309 314 316 319 320 319 316 315 313 310 311 311 310 323 328 322 332 337 343 351 351 357 356 361 355 353 357 351 345 346 343 346 345 344 343 343 344 345 347 348 347 345
308 308 307 308 313 316 314 316 317 316 315 312 310 311 311 312 332 328 319 329 343 350 355 355 355 357 357 353 351 353 350 344 346 344 342 344 344 344 343 344 345 350 349 347 345
309 309 308 309 311 317 314 312 314 315 313 311 311 311 310 327 336 328 323 326 345 353 353 353 355 358 357 348 348 354 346 345 345 345 345 346 343 345 346 343 344 346 347 347 346
309 309 309 309 311 315 317 312 311 312 311 311 311 311 319 332 333 325 325 330 346 351 348 351 351 352 354 351 348 347 345 346 346 345 345 344 343 343 344 342 342 346 347 348 347
309 309 309 309 310 313 317 314 311 310 311 311 311 311 328 333 331 333 335 338 346 342 346 347 345 346 352 351 349 346 346 346 347 347 347 346 345 344 344 341 341 346 348 347 347
309 309 310 310 310 313 316 315 312 311 311 311 311 320 331 332 331 333 335 341 341 339 345 340 340 343 351 352 347 346 348 347 348 348 348 349 348 345 344 343 345 346 348 347 346
310 310 310 310 310 314 315 313 312 312 312 311 311 326 331 328 331 330 334 335 336 337 344 337 336 347 351 350 351 350 350 354 348 347 347 348 353 349 345 344 345 347 347 347 347
310 310 310 310 310 315 315 312 312 312 311 311 324 330 328 326 330 326 332 336 338 340 344 334 335 347 351 355 356 353 352 353 353 347 349 350 353 350 347 346 344 344 345 345 345
311 311 310 310 311 318 318 316 314 314 313 324 326 326 326 329 330 326 330 334 340 345 343 338 339 347 351 354 353 347 347 348 355 352 351 350 352 352 349 349 347 344 345 345 345
311 311 310 310 313 318 319 325 331 330 321 325 325 326 325 329 328 328 329 335 342 344 347 341 342 346 348 349 345 344 346 350 350 352 353 353 352 353 351 350 350 348 346 346 346
310 311 310 310 313 318 320 332 330 330 329 324 325 326 328 327 329 329 328 337 345 348 347 344 340 341 340 342 344 340 343 350 348 347 352 352 351 350 352 352 350 350 348 346 347
311 311 311 310 314 318 326 328 327 329 332 330 325 325 327 327 328 330 328 332 337 344 345 344 340 337 338 339 339 339 345 348 351 346 349 346 354 351 351 352 351 350 350 349 345
311 312 311 310 319 326 329 330 328 328 335 330 325 327 327 328 327 328 328 331 332 335 337 338 338 336 338 337 336 341 342 341 342 346 354 348 364 353 352 352 353 352 351 351 350
312 312 311 309 320 326 331 328 328 329 339 331 326 327 328 329 329 328 328 328 330 330 332 334 334 332 336 336 336 338 338 341 341 342 342 343 345 351 347 348 349 348 349 350 351
313 312 311 313 316 325 328 329 327 333 339 330 328 327 329 329 328 328 328 328 328 327 328 329 329 329 332 332 334 335 335 338 339 338 338 340 338 347 347 345 342 342 344 345 349
312 311 310 319 327 324 327 330 333 336 335 331 329 328 329 329 328 328 328 326 326 326 326 327 326 327 327 329 333 334 334 337 340 338 339 337 334 334 339 339 337 337 337 341 345
315 313 315 318 322 324 328 334 338 335 335 331 329 329 329 330 329 328 329 330 328 328 328 328 327 326 327 328 332 333 333 336 340 338 337 335 334 336 335 334 333 336 346 345 344
320 324 322 320 322 326 332 337 338 335 334 333 332 330 331 330 330 329 330 330 330 328 329 330 329 328 326 327 329 331 332 333 334 335 335 334 335 334 333 334 341 346 352 353 347
323 327 326 323 324 329 334 335 336 333 333 333 335 333 333 331 329 330 331 331 330 329 329 331 333 331 329 328 327 328 331 333 334 336 339 337 336 337 337 337 342 336 345 349 351
323 332 327 324 327 332 335 336 335 332 331 334 334 336 334 334 330 331 331 330 329 329 329 330 331 333 330 330 330 330 327 328 329 331 335 338 337 335 333 334 336 335 335 336 337
329 333 327 326 331 331 333 334 322 332 329 331 333 334 335 334 333 332 331 333 333 332 330 330 331 333 333 332 332 332 333 332 333 337 334 335 335 334 334 332 332 334 335 336 336
333 330 328 328 333 332 332 333 330 329 330 331 332 332 333 335 336 334 332 335 334 332 333 333 331 332 333 333 333 332 331 331 332 333 334 336 336 334 334 334 336 337 338 341 343
330 329 330 330 331 333 332 331 329 327 329 329 331 331 333 335 336 338 334 335 334 335 343 334 333 333 335 336 337 336 334 332 332 333 334 334 334 335 335 335 335 337 340 344 345
328 329 330 332 330 329 330 331 329 329 328 329 330 330 332 335 335 336 335 336 335 336 334 333 336 336 335 335 336 336 336 336 336 336 337 335 335 336 337 339 337 337 343 346 349
328 329 326 328 329 329 324 329 327 328 328 328 329 329 329 332 334 336 338 336 337 336 336 335 339 337 339 337 338 338 336 336 335 336 336 336 337 336 340 339 340 340 344 348 350
321 321 326 319 326 327 329 329 328 327 325 326 327 327 327 330 331 331 331 333 334 335 337 337 337 339 340 336 337 338 336 335 336 336 336 337 336 338 339 338 338 341 342 343 344
Wind_Speed
16 17 17 15 12 8 6 5 4 3 4 5 5 5 6 6 6 6 8 4 4 8 8 7 6 5 7 13 9 7 6 10 14 15 14 13 13 8 12 12 8 4 18 21 21
17 17 17 16 14 10 6 5 4 3 4 5 4 5 6 8 8 13 3 4 7 12 9 9 11 8 7 10 2 7 3 12 14 12 13 11 11 12 12 14 10 12 20 21 20
17 18 18 16 15 10 6 5 4 3 4 5 4 5 6 6 9 8 7 8 11 11 11 8 9 12 15 11 10 8 9 13 13 13 12 10 10 9 13 11 13 16 17 18 18
18 19 18 16 14 10 6 4 4 3 4 4 4 5 7 4 1 6 9 9 11 9 9 8 12 16 15 2 15 11 7 12 16 11 9 10 9 10 3 14 13 16 18 16 15
18 18 19 16 14 11 6 3 3 2 3 3 4 5 3 9 4 7 9 9 9 8 11 9 11 8 3 3 5 11 9 10 13 8 13 9 8 8 7 5 16 19 17 16 15
19 19 19 16 14 11 5 3 2 2 2 2 4 5 6 12 5 8 10 10 10 8 6 8 6 10 9 5 6 7 9 10 10 10 3 11 9 11 8 8 12 18 17 16 14
19 19 19 16 14 10 3 1 1 2 2 2 3 4 10 4 3 7 12 11 8 10 5 3 8 12 5 6 2 10 9 10 9 6 8 4 9 12 12 13 14 14 14 13 12
19 18 18 16 14 8 1 0 1 2 2 2 3 6 2 4 3 8 13 11 9 9 8 5 9 10 10 5 6 3 8 8 7 6 9 8 5 12 12 14 15 15 13 13 13
19 18 17 16 14 4 2 2 2 1 2 2 4 9 6 6 9 10 13 13 12 10 8 8 11 10 8 5 6 4 1 6 9 7 3 5 11 11 11 13 14 14 14 13 14
19 18 16 15 14 1 4 4 3 3 2 4 10 7 7 11 10 8 11 7 10 11 10 10 10 13 15 10 2 4 7 6 7 10 8 9 8 11 11 11 12 14 14 14 14
19 19 15 14 11 4 6 3 5 6 13 7 13 4 6 7 8 10 12 12 11 9 14 10 12 6 7 14 5 4 2 6 2 4 7 9 3 14 14 13 14 13 15 15 15
19 18 14 11 8 6 5 7 8 7 10 10 4 4 2 13 9 9 11 11 13 14 16 5 14 8 5 5 7 7 5 4 5 2 9 7 8 9 16 14 14 15 16 17 17
20 19 13 9 4 6 10 6 3 7 7 11 10 12 12 12 11 14 13 14 9 14 12 15 7 3 4 6 9 13 6 0 5 6 10 5 7 12 11 15 14 14 16 16 18
22 19 10 6 2 7 11 5 4 5 6 14 11 7 8 9 8 1 14 9 9 12 12 10 0 3 8 10 6 3 3 5 5 9 6 14 9 11 12 11 16 16 15 16 16
24 18 7 7 10 12 5 3 5 5 6 14 15 10 11 15 10 13 11 10 14 12 8 12 9 9 12 12 2 7 7 8 7 12 11 12 7 7 10 8 12 12 16 17 18
25 15 4 4 8 8 4 4 6 7 2 9 11 13 15 15 9 8 10 12 10 11 10 19 3 8 11 5 6 5 9 11 12 12 9 8 6 11 10 7 4 5 12 14 18
19 9 11 6 1 5 6 8 7 9 8 10 14 18 18 12 12 11 14 15 11 10 14 17 18 14 11 11 11 10 14 9 9 9 4 9 6 8 6 4 4 3 5 8 14
6 2 4 9 5 5 9 8 8 5 5 5 11 14 15 14 13 12 12 13 15 13 12 9 14 19 14 15 10 15 13 11 4 5 7 5 1 7 4 5 2 6 7 8 13
2 3 7 7 9 9 8 10 6 2 5 6 8 10 14 12 7 12 14 14 13 12 11 5 8 4 5 10 15 14 12 13 12 12 7 5 9 7 6 4 5 11 6 4 8
6 9 5 5 10 11 8 16 3 5 7 8 12 12 14 13 12 12 13 10 9 8 12 4 8 8 9 9 11 13 12 8 9 8 9 7 2 10 10 8 10 10 12 9 2
6 6 7 8 11 8 10 15 5 4 6 7 11 6 13 9 15 14 7 9 4 4 12 14 8 7 6 11 12 9 13 13 14 11 10 5 5 12 7 4 2 8 9 7 3
9 4 9 11 8 10 12 12 6 6 6 7 7 9 9 10 8 14 11 3 3 8 11 14 9 11 14 11 8 10 11 12 10 12 11 8 9 9 12 7 4 11 12 15 12
4 3 8 12 7 9 7 5 5 6 6 3 7 4 1 8 6 9 8 10 3 8 3 5 9 12 12 10 14 11 14 12 15 11 12 10 4 8 11 5 11 11 10 9 10
5 5 5 7 7 12 7 11 10 3 3 7 7 5 8 10 8 4 9 6 2 7 9 6 13 17 14 12 7 5 11 12 11 11 11 13 15 9 5 6 8 10 10 10 10
3 2 6 4 7 8 4 4 11 6 4 5 6 9 6 12 12 10 12 4 8 7 7 8 16 17 19 20 18 12 15 13 14 13 15 15 17 14 12 10 8 8 11 11 10
6 5 2 3 1 7 5 5 8 5 4 6 9 2 6 10 11 5 18 5 10 8 10 12 15 15 20 20 17 22 18 19 19 19 20 19 19 15 8 5 9 8 9 10 11
10 3 5 6 5 8 1 3 5 2 4 4 7 4 10 9 9 9 10 12 13 7 12 13 12 13 19 16 19 24 19 22 18 21 19 20 17 5 5 6 5 7 8 9 12
Wind_Direction
8 4 360 356 344 328 313 302 283 266 266 260 259 271 286 296 287 238 240 92 191 187 173 203 230 230 228 252 233 265 268 72 65 95 107 122 114 80 96 129 147 46 138 125 146
5 4 359 355 351 342 317 290 275 256 260 261 241 264 289 303 273 236 163 184 192 175 201 206 212 185 247 256 252 231 72 73 78 107 112 107 108 130 141 131 130 114 104 137 151
2 360 357 353 351 348 333 294 269 248 250 259 241 260 285 305 253 104 172 173 165 179 256 272 272 246 223 236 146 235 53 79 90 91 114 117 121 157 134 151 151 136 139 151 157
357 356 356 353 352 348 347 315 278 242 232 242 245 267 286 257 355 111 160 169 175 205 266 252 233 244 236 117 92 295 63 71 92 109 130 97 135 133 6 130 140 140 153 157 165
353 353 353 353 351 348 346 340 300 252 233 234 263 277 282 217 73 155 164 173 191 226 257 269 275 314 181 206 353 62 94 106 98 97 81 121 98 117 90 133 139 145 161 165 174
349 350 349 351 350 345 346 347 306 251 217 230 273 282 245 248 112 160 166 182 212 228 236 266 343 326 309 358 73 102 121 112 112 96 127 97 106 175 120 143 149 151 170 176 173
347 346 347 348 346 344 343 327 240 243 219 219 268 278 259 47 150 175 189 199 210 248 278 336 315 264 350 117 246 140 142 147 135 154 125 44 153 83 137 144 147 163 175 181 179
345 343 342 342 342 341 340 177 201 231 226 247 255 259 320 134 172 188 196 207 216 236 278 298 308 288 298 129 205 156 217 94 150 193 111 148 117 117 148 155 163 174 181 182 184
345 342 340 339 339 333 138 142 160 151 243 253 253 229 155 143 196 194 200 217 205 224 246 284 274 274 197 203 34 7 249 250 149 165 138 219 112 137 172 159 170 181 180 188 186
345 343 339 335 338 254 165 158 175 158 218 254 274 248 191 204 163 182 201 239 215 220 234 239 240 236 96 82 176 337 353 358 147 190 201 204 133 152 181 181 171 184 185 188 193
346 343 339 336 339 187 161 176 201 192 206 288 162 260 132 126 165 201 192 214 226 235 247 193 272 181 214 173 360 167 87 307 134 38 274 225 194 164 178 201 182 185 188 193 196
345 343 339 334 333 202 228 259 35 348 209 208 245 253 216 186 182 191 192 214 212 236 213 233 239 51 35 315 291 282 201 174 115 143 259 175 210 205 174 199 201 191 186 195 195
345 340 336 329 304 215 239 305 320 333 250 162 201 208 182 203 214 181 204 216 234 239 237 263 63 55 264 253 266 244 59 31 158 198 232 205 312 180 196 183 197 211 191 195 194
342 335 330 317 219 204 225 198 277 306 261 148 194 207 181 220 211 208 196 227 229 253 238 255 275 257 247 261 266 339 55 278 269 273 192 251 189 224 162 194 187 204 211 199 196
337 325 307 245 311 231 64 236 289 238 252 151 153 123 177 208 105 185 207 213 250 217 262 225 221 228 240 255 300 308 333 307 304 278 273 210 266 127 165 184 188 207 206 213 197
333 314 263 237 238 258 244 259 245 233 204 158 152 188 184 212 187 134 182 237 238 255 239 265 123 280 266 282 249 335 267 252 255 248 252 72 314 169 135 141 112 128 186 213 208
330 297 197 213 224 196 225 229 225 254 135 150 176 175 196 183 177 188 192 197 209 212 228 225 240 223 242 241 212 237 256 250 220 213 96 100 279 292 57 71 73 298 268 218 205
329 175 255 199 240 218 218 229 255 352 175 131 165 187 204 178 204 198 199 213 224 252 282 214 216 206 207 230 248 208 245 287 323 270 31 155 289 113 32 314 278 222 239 240 190
232 210 206 189 210 212 226 225 250 18 23 200 196 207 199 190 233 197 218 218 204 212 256 209 238 95 183 245 226 246 252 280 294 275 247 249 101 216 70 140 111 62 62 152 182
293 222 122 190 184 209 234 249 337 344 315 278 221 210 211 197 197 195 187 211 214 209 227 290 267 172 151 233 243 258 280 258 215 261 266 248 183 96 88 84 80 68 86 81 122
249 225 112 172 187 220 229 236 217 148 284 268 253 268 253 235 202 215 241 126 236 202 242 247 241 163 169 212 228 190 234 245 278 293 302 277 99 107 114 108 52 60 29 59 78
282 240 139 176 204 221 230 235 14 255 213 255 288 300 289 271 257 242 235 156 100 270 220 236 270 242 224 233 241 305 283 230 230 221 238 288 293 62 75 42 71 40 22 12 1
261 65 166 207 232 206 212 244 257 248 235 248 243 251 191 273 261 267 255 78 92 247 318 274 230 254 240 226 200 233 246 249 269 275 266 282 244 141 148 177 60 29 10 355 353
280 207 155 215 275 284 185 228 201 251 260 284 303 260 251 245 223 279 260 120 270 290 11 302 266 273 280 264 7 217 239 254 269 268 260 236 241 245 35 12 6 0 352 353 351
248 14 358 197 210 252 306 343 231 179 251 258 228 254 274 260 242 238 246 168 197 160 243 247 262 275 280 288 293 289 274 264 264 270 268 282 293 311 335 2 340 342 351 355 360
319 332 212 2 246 254 150 206 267 117 271 203 259 51 304 266 297 312 330 225 271 197 243 247 260 272 276 281 283 280 262 267 271 272 273 274 277 291 39 359 350 353 353 1 9
354 286 278 114 218 235 110 94 218 345 170 336 328 299 258 26 352 326 313 310 291 301 282 287 278 271 263 263 271 263 258 258 268 272 267 267 277 24 342 6 335 9 12 8 3